Location: *
(28.3744°N, 81.5492°W)
Time: 02:55:24
(UTC+00:00)

CZ-4B DEB - Pass Details

Date: 15 June 2025
Orbit: 834 x 855 km, 99.0° (Epoch: 11 July)

Event Time Altitude Azimuth Distance (km) Brightness Sun altitude
Exits shadow 00:57:49 - 151° (SSE) 2,974 6.5 -7.2°
Reaches altitude 10° 00:59:10 10° 148° (SSE) 2,458 6.1 -7.4°
Maximum altitude 01:04:25 50° 73° (ENE) 1,058 4.5 -8.4°
Drops below altitude 10° 01:09:39 10° 359° (N) 2,455 7.1 -9.4°
Sets 01:12:04 0° 355° (N) 3,390 7.9 -9.8°
